Year,Month,Day,Hour,Minute,Value (Times are PST for temperature in C)
2012,09,16,00,00,12.40
2012,09,16,00,01,12.40
2012,09,16,00,02,12.30
2012,09,16,00,03,12.30
2012,09,16,00,04,12.30
2012,09,16,00,05,12.30
2012,09,16,00,06,12.30
2012,09,16,00,07,12.30
2012,09,16,00,08,12.30
2012,09,16,00,09,12.30
2012,09,16,00,10,12.20
2012,09,16,00,11,12.20
2012,09,16,00,12,12.20
2012,09,16,00,13,12.10
2012,09,16,00,14,12.10
2012,09,16,00,15,12.10
2012,09,16,00,16,12.00
2012,09,16,00,17,12.00
2012,09,16,00,18,11.90
2012,09,16,00,19,11.90
2012,09,16,00,20,11.90
2012,09,16,00,21,11.90
2012,09,16,00,22,11.80
2012,09,16,00,23,11.80
2012,09,16,00,24,11.80
2012,09,16,00,25,11.80
2012,09,16,00,26,11.80
2012,09,16,00,27,11.80
2012,09,16,00,28,11.80
2012,09,16,00,29,11.80
2012,09,16,00,30,11.80
2012,09,16,00,31,11.80
2012,09,16,00,32,11.80
2012,09,16,00,33,11.70
2012,09,16,00,34,11.70
2012,09,16,00,35,11.70
2012,09,16,00,36,11.60
2012,09,16,00,37,11.60
2012,09,16,00,38,11.50
2012,09,16,00,39,11.50
2012,09,16,00,40,11.40
2012,09,16,00,41,11.40
2012,09,16,00,42,11.40
2012,09,16,00,43,11.40
2012,09,16,00,44,11.40
2012,09,16,00,45,11.40
2012,09,16,00,46,11.50
2012,09,16,00,47,11.50
2012,09,16,00,48,11.60
2012,09,16,00,49,11.60
2012,09,16,00,50,11.60
2012,09,16,00,51,11.70
2012,09,16,00,52,11.70
2012,09,16,00,53,11.70
2012,09,16,00,54,11.70
2012,09,16,00,55,11.70
2012,09,16,00,56,11.70
2012,09,16,00,57,11.80
2012,09,16,00,58,11.80
2012,09,16,00,59,11.80
2012,09,16,01,00,11.80
2012,09,16,01,01,11.90
2012,09,16,01,02,11.90
2012,09,16,01,03,11.90
2012,09,16,01,04,11.90
2012,09,16,01,05,12.00
2012,09,16,01,06,12.00
2012,09,16,01,07,12.00
2012,09,16,01,08,12.00
2012,09,16,01,09,12.00
2012,09,16,01,10,12.00
2012,09,16,01,11,11.90
2012,09,16,01,12,11.90
2012,09,16,01,13,11.90
2012,09,16,01,14,11.80
2012,09,16,01,15,11.80
2012,09,16,01,16,11.80
2012,09,16,01,17,11.70
2012,09,16,01,18,11.70
2012,09,16,01,19,11.70
2012,09,16,01,20,11.70
2012,09,16,01,21,11.70
2012,09,16,01,22,11.70
2012,09,16,01,23,11.70
2012,09,16,01,24,11.70
2012,09,16,01,25,11.70
2012,09,16,01,26,11.70
2012,09,16,01,27,11.70
2012,09,16,01,28,11.70
2012,09,16,01,29,11.70
2012,09,16,01,30,11.60
2012,09,16,01,31,11.60
2012,09,16,01,32,11.60
2012,09,16,01,33,11.60
2012,09,16,01,34,11.50
2012,09,16,01,35,11.50
2012,09,16,01,36,11.50
2012,09,16,01,37,11.50
2012,09,16,01,38,11.50
2012,09,16,01,39,11.40
2012,09,16,01,40,11.40
2012,09,16,01,41,11.40
2012,09,16,01,42,11.40
2012,09,16,01,43,11.30
2012,09,16,01,44,11.30
2012,09,16,01,45,11.30
2012,09,16,01,46,11.30
2012,09,16,01,47,11.30
2012,09,16,01,48,11.30
2012,09,16,01,49,11.30
2012,09,16,01,50,11.30
2012,09,16,01,51,11.30
2012,09,16,01,52,11.30
2012,09,16,01,53,11.20
2012,09,16,01,54,11.20
2012,09,16,01,55,11.20
2012,09,16,01,56,11.20
2012,09,16,01,57,11.20
2012,09,16,01,58,11.20
2012,09,16,01,59,11.10
2012,09,16,02,00,11.10
2012,09,16,02,01,11.10
2012,09,16,02,02,11.00
2012,09,16,02,03,10.90
2012,09,16,02,04,10.90
2012,09,16,02,05,10.90
2012,09,16,02,06,10.90
2012,09,16,02,07,10.90
2012,09,16,02,08,10.90
2012,09,16,02,09,10.90
2012,09,16,02,10,10.90
2012,09,16,02,11,11.00
2012,09,16,02,12,11.00
2012,09,16,02,13,11.00
2012,09,16,02,14,11.10
2012,09,16,02,15,11.10
2012,09,16,02,16,11.10
2012,09,16,02,17,11.10
2012,09,16,02,18,11.00
2012,09,16,02,19,11.00
2012,09,16,02,20,10.90
2012,09,16,02,21,10.90
2012,09,16,02,22,10.90
2012,09,16,02,23,10.90
2012,09,16,02,24,10.90
2012,09,16,02,25,10.90
2012,09,16,02,26,10.90
2012,09,16,02,27,10.90
2012,09,16,02,28,10.90
2012,09,16,02,29,10.90
2012,09,16,02,30,10.90
2012,09,16,02,31,10.90
2012,09,16,02,32,10.90
2012,09,16,02,33,10.90
2012,09,16,02,34,10.90
2012,09,16,02,35,10.90
2012,09,16,02,36,10.90
2012,09,16,02,37,10.90
2012,09,16,02,38,10.90
2012,09,16,02,39,10.80
2012,09,16,02,40,10.80
2012,09,16,02,41,10.80
2012,09,16,02,42,10.80
2012,09,16,02,43,10.80
2012,09,16,02,44,10.80
2012,09,16,02,45,10.80
2012,09,16,02,46,10.80
2012,09,16,02,47,10.80
2012,09,16,02,48,10.80
2012,09,16,02,49,10.70
2012,09,16,02,50,10.70
2012,09,16,02,51,10.70
2012,09,16,02,52,10.70
2012,09,16,02,53,10.70
2012,09,16,02,54,10.80
2012,09,16,02,55,10.80
2012,09,16,02,56,10.80
2012,09,16,02,57,10.80
2012,09,16,02,58,10.90
2012,09,16,02,59,10.90
2012,09,16,03,00,11.00
2012,09,16,03,01,11.00
2012,09,16,03,02,11.10
2012,09,16,03,03,11.20
2012,09,16,03,04,11.30
2012,09,16,03,05,11.30
2012,09,16,03,06,11.40
2012,09,16,03,07,11.50
2012,09,16,03,08,11.50
2012,09,16,03,09,11.50
2012,09,16,03,10,11.50
2012,09,16,03,11,11.50
2012,09,16,03,12,11.40
2012,09,16,03,13,11.40
2012,09,16,03,14,11.40
2012,09,16,03,15,11.40
2012,09,16,03,16,11.40
2012,09,16,03,17,11.30
2012,09,16,03,18,11.30
2012,09,16,03,19,11.30
2012,09,16,03,20,11.30
2012,09,16,03,21,11.20
2012,09,16,03,22,11.10
2012,09,16,03,23,11.10
2012,09,16,03,24,11.00
2012,09,16,03,25,11.00
2012,09,16,03,26,10.90
2012,09,16,03,27,10.90
2012,09,16,03,28,10.90
2012,09,16,03,29,10.80
2012,09,16,03,30,10.80
2012,09,16,03,31,10.80
2012,09,16,03,32,10.80
2012,09,16,03,33,10.70
2012,09,16,03,34,10.70
2012,09,16,03,35,10.70
2012,09,16,03,36,10.70
2012,09,16,03,37,10.70
2012,09,16,03,38,10.70
2012,09,16,03,39,10.70
2012,09,16,03,40,10.70
2012,09,16,03,41,10.70
2012,09,16,03,42,10.70
2012,09,16,03,43,10.70
2012,09,16,03,44,10.70
2012,09,16,03,45,10.70
2012,09,16,03,46,10.70
2012,09,16,03,47,10.70
2012,09,16,03,48,10.70
2012,09,16,03,49,10.70
2012,09,16,03,50,10.60
2012,09,16,03,51,10.60
2012,09,16,03,52,10.60
2012,09,16,03,53,10.60
2012,09,16,03,54,10.60
2012,09,16,03,55,10.50
2012,09,16,03,56,10.50
2012,09,16,03,57,10.50
2012,09,16,03,58,10.40
2012,09,16,03,59,10.40
2012,09,16,04,00,10.40
2012,09,16,04,01,10.30
2012,09,16,04,02,10.30
2012,09,16,04,03,10.30
2012,09,16,04,04,10.30
2012,09,16,04,05,10.30
2012,09,16,04,06,10.30
2012,09,16,04,07,10.20
2012,09,16,04,08,10.20
2012,09,16,04,09,10.20
2012,09,16,04,10,10.20
2012,09,16,04,11,10.20
2012,09,16,04,12,10.20
2012,09,16,04,13,10.20
2012,09,16,04,14,10.30
2012,09,16,04,15,10.40
2012,09,16,04,16,10.60
2012,09,16,04,17,10.70
2012,09,16,04,18,10.80
2012,09,16,04,19,10.80
2012,09,16,04,20,10.90
2012,09,16,04,21,11.00
2012,09,16,04,22,11.00
2012,09,16,04,23,11.10
2012,09,16,04,24,11.20
2012,09,16,04,25,11.20
2012,09,16,04,26,11.30
2012,09,16,04,27,11.30
2012,09,16,04,28,11.30
2012,09,16,04,29,11.30
2012,09,16,04,30,11.30
2012,09,16,04,31,11.30
2012,09,16,04,32,11.30
2012,09,16,04,33,11.40
2012,09,16,04,34,11.50
2012,09,16,04,35,11.50
2012,09,16,04,36,11.60
2012,09,16,04,37,11.60
2012,09,16,04,38,11.60
2012,09,16,04,39,11.60
2012,09,16,04,40,11.60
2012,09,16,04,41,11.60
2012,09,16,04,42,11.60
2012,09,16,04,43,11.60
2012,09,16,04,44,11.50
2012,09,16,04,45,11.40
2012,09,16,04,46,11.30
2012,09,16,04,47,11.20
2012,09,16,04,48,11.10
2012,09,16,04,49,11.00
2012,09,16,04,50,11.00
2012,09,16,04,51,10.90
2012,09,16,04,52,10.90
2012,09,16,04,53,10.80
2012,09,16,04,54,10.80
2012,09,16,04,55,10.80
2012,09,16,04,56,10.90
2012,09,16,04,57,11.00
2012,09,16,04,58,11.00
2012,09,16,04,59,11.10
2012,09,16,05,00,11.10
2012,09,16,05,01,11.10
2012,09,16,05,02,11.10
2012,09,16,05,03,11.10
2012,09,16,05,04,11.10
2012,09,16,05,05,11.00
2012,09,16,05,06,11.00
2012,09,16,05,07,10.90
2012,09,16,05,08,10.90
2012,09,16,05,09,10.80
2012,09,16,05,10,10.80
2012,09,16,05,11,10.70
2012,09,16,05,12,10.60
2012,09,16,05,13,10.60
2012,09,16,05,14,10.50
2012,09,16,05,15,10.50
2012,09,16,05,16,10.50
2012,09,16,05,17,10.40
2012,09,16,05,18,10.40
2012,09,16,05,19,10.40
2012,09,16,05,20,10.40
2012,09,16,05,21,10.40
2012,09,16,05,22,10.40
2012,09,16,05,23,10.30
2012,09,16,05,24,10.30
2012,09,16,05,25,10.30
2012,09,16,05,26,10.30
2012,09,16,05,27,10.30
2012,09,16,05,28,10.30
2012,09,16,05,29,10.30
2012,09,16,05,30,10.20
2012,09,16,05,31,10.20
2012,09,16,05,32,10.20
2012,09,16,05,33,10.20
2012,09,16,05,34,10.10
2012,09,16,05,35,10.10
2012,09,16,05,36,10.00
2012,09,16,05,37,10.00
2012,09,16,05,38,9.90
2012,09,16,05,39,9.90
2012,09,16,05,40,9.90
2012,09,16,05,41,9.90
2012,09,16,05,42,9.90
2012,09,16,05,43,9.90
2012,09,16,05,44,9.90
2012,09,16,05,45,10.00
2012,09,16,05,46,10.00
2012,09,16,05,47,10.00
2012,09,16,05,48,10.10
2012,09,16,05,49,10.10
2012,09,16,05,50,10.10
2012,09,16,05,51,10.10
2012,09,16,05,52,10.10
2012,09,16,05,53,10.10
2012,09,16,05,54,10.00
2012,09,16,05,55,10.00
2012,09,16,05,56,9.90
2012,09,16,05,57,9.90
2012,09,16,05,58,9.80
2012,09,16,05,59,9.80
2012,09,16,06,00,9.80
2012,09,16,06,01,9.80
2012,09,16,06,02,9.70
2012,09,16,06,03,9.70
2012,09,16,06,04,9.70
2012,09,16,06,05,9.70
2012,09,16,06,06,9.70
2012,09,16,06,07,9.70
2012,09,16,06,08,9.70
2012,09,16,06,09,9.70
2012,09,16,06,10,9.70
2012,09,16,06,11,9.70
2012,09,16,06,12,9.80
2012,09,16,06,13,9.80
2012,09,16,06,14,9.80
2012,09,16,06,15,9.80
2012,09,16,06,16,9.80
2012,09,16,06,17,9.80
2012,09,16,06,18,9.80
2012,09,16,06,19,9.80
2012,09,16,06,20,9.80
2012,09,16,06,21,9.80
2012,09,16,06,22,9.80
2012,09,16,06,23,9.80
2012,09,16,06,24,9.80
2012,09,16,06,25,9.70
2012,09,16,06,26,9.70
2012,09,16,06,27,9.70
2012,09,16,06,28,9.70
2012,09,16,06,29,9.70
2012,09,16,06,30,9.70
2012,09,16,06,31,9.70
2012,09,16,06,32,9.80
2012,09,16,06,33,9.90
2012,09,16,06,34,10.00
2012,09,16,06,35,10.10
2012,09,16,06,36,10.20
2012,09,16,06,37,10.30
2012,09,16,06,38,10.40
2012,09,16,06,39,10.40
2012,09,16,06,40,10.50
2012,09,16,06,41,10.40
2012,09,16,06,42,10.40
2012,09,16,06,43,10.40
2012,09,16,06,44,10.40
2012,09,16,06,45,10.40
2012,09,16,06,46,10.30
2012,09,16,06,47,10.30
2012,09,16,06,48,10.30
2012,09,16,06,49,10.40
2012,09,16,06,50,10.40
2012,09,16,06,51,10.50
2012,09,16,06,52,10.50
2012,09,16,06,53,10.60
2012,09,16,06,54,10.60
2012,09,16,06,55,10.60
2012,09,16,06,56,10.60
2012,09,16,06,57,10.60
2012,09,16,06,58,10.70
2012,09,16,06,59,10.70
2012,09,16,07,00,10.60
2012,09,16,07,01,10.60
2012,09,16,07,02,10.60
2012,09,16,07,03,10.60
2012,09,16,07,04,10.60
2012,09,16,07,05,10.60
2012,09,16,07,06,10.50
2012,09,16,07,07,10.50
2012,09,16,07,08,10.50
2012,09,16,07,09,10.40
2012,09,16,07,10,10.40
2012,09,16,07,11,10.30
2012,09,16,07,12,10.30
2012,09,16,07,13,10.30
2012,09,16,07,14,10.30
2012,09,16,07,15,10.30
2012,09,16,07,16,10.40
2012,09,16,07,17,10.50
2012,09,16,07,18,10.50
2012,09,16,07,19,10.60
2012,09,16,07,20,10.70
2012,09,16,07,21,10.70
2012,09,16,07,22,10.70
2012,09,16,07,23,10.80
2012,09,16,07,24,10.80
2012,09,16,07,25,10.90
2012,09,16,07,26,10.90
2012,09,16,07,27,10.90
2012,09,16,07,28,10.90
2012,09,16,07,29,10.90
2012,09,16,07,30,10.90
2012,09,16,07,31,10.90
2012,09,16,07,32,10.90
2012,09,16,07,33,10.90
2012,09,16,07,34,11.00
2012,09,16,07,35,11.00
2012,09,16,07,36,11.00
2012,09,16,07,37,11.10
2012,09,16,07,38,11.10
2012,09,16,07,39,11.10
2012,09,16,07,40,11.10
2012,09,16,07,41,11.20
2012,09,16,07,42,11.20
2012,09,16,07,43,11.30
2012,09,16,07,44,11.30
2012,09,16,07,45,11.30
2012,09,16,07,46,11.40
2012,09,16,07,47,11.40
2012,09,16,07,48,11.40
2012,09,16,07,49,11.40
2012,09,16,07,50,11.50
2012,09,16,07,51,11.50
2012,09,16,07,52,11.60
2012,09,16,07,53,11.60
2012,09,16,07,54,11.60
2012,09,16,07,55,11.50
2012,09,16,07,56,11.50
2012,09,16,07,57,11.60
2012,09,16,07,58,11.60
2012,09,16,07,59,11.60
2012,09,16,08,00,11.60
2012,09,16,08,01,11.60
2012,09,16,08,02,11.70
2012,09,16,08,03,11.70
2012,09,16,08,04,11.80
2012,09,16,08,05,11.80
2012,09,16,08,06,11.80
2012,09,16,08,07,11.90
2012,09,16,08,08,11.90
2012,09,16,08,09,11.90
2012,09,16,08,10,12.00
2012,09,16,08,11,12.00
2012,09,16,08,12,11.90
2012,09,16,08,13,11.90
2012,09,16,08,14,11.90
2012,09,16,08,15,11.90
2012,09,16,08,16,11.90
2012,09,16,08,17,11.90
2012,09,16,08,18,11.90
2012,09,16,08,19,11.90
2012,09,16,08,20,11.90
2012,09,16,08,21,11.90
2012,09,16,08,22,11.90
2012,09,16,08,23,11.90
2012,09,16,08,24,11.90
2012,09,16,08,25,12.00
2012,09,16,08,26,12.00
2012,09,16,08,27,12.00
2012,09,16,08,28,12.10
2012,09,16,08,29,12.10
2012,09,16,08,30,12.20
2012,09,16,08,31,12.20
2012,09,16,08,32,12.20
2012,09,16,08,33,12.30
2012,09,16,08,34,12.30
2012,09,16,08,35,12.40
2012,09,16,08,36,12.50
2012,09,16,08,37,12.50
2012,09,16,08,38,12.60
2012,09,16,08,39,12.70
2012,09,16,08,40,12.70
2012,09,16,08,41,12.80
2012,09,16,08,42,12.90
2012,09,16,08,43,13.00
2012,09,16,08,44,13.00
2012,09,16,08,45,13.10
2012,09,16,08,46,13.20
2012,09,16,08,47,13.30
2012,09,16,08,48,13.40
2012,09,16,08,49,13.50
2012,09,16,08,50,13.50
2012,09,16,08,51,13.60
2012,09,16,08,52,13.70
2012,09,16,08,53,13.80
2012,09,16,08,54,13.90
2012,09,16,08,55,13.90
2012,09,16,08,56,14.00
2012,09,16,08,57,14.10
2012,09,16,08,58,14.20
2012,09,16,08,59,14.30
2012,09,16,09,00,14.40
2012,09,16,09,01,14.40
2012,09,16,09,02,14.50
2012,09,16,09,03,14.60
2012,09,16,09,04,14.70
2012,09,16,09,05,14.70
2012,09,16,09,06,14.80
2012,09,16,09,07,15.00
2012,09,16,09,08,15.00
2012,09,16,09,09,15.10
2012,09,16,09,10,15.20
2012,09,16,09,11,15.30
2012,09,16,09,12,15.40
2012,09,16,09,13,15.40
2012,09,16,09,14,15.40
2012,09,16,09,15,15.50
2012,09,16,09,16,15.50
2012,09,16,09,17,15.60
2012,09,16,09,18,15.60
2012,09,16,09,19,15.70
2012,09,16,09,20,15.70
2012,09,16,09,21,15.80
2012,09,16,09,22,15.80
2012,09,16,09,23,15.90
2012,09,16,09,24,15.90
2012,09,16,09,25,15.90
2012,09,16,09,26,16.00
2012,09,16,09,27,16.00
2012,09,16,09,28,16.00
2012,09,16,09,29,16.10
2012,09,16,09,30,16.10
2012,09,16,09,31,16.10
2012,09,16,09,32,16.10
2012,09,16,09,33,16.10
2012,09,16,09,34,16.20
2012,09,16,09,35,16.20
2012,09,16,09,36,16.20
2012,09,16,09,37,16.20
2012,09,16,09,38,16.20
2012,09,16,09,39,16.20
2012,09,16,09,40,16.20
2012,09,16,09,41,16.30
2012,09,16,09,42,16.30
2012,09,16,09,43,16.40
2012,09,16,09,44,16.40
2012,09,16,09,45,16.40
2012,09,16,09,46,16.40
2012,09,16,09,47,16.40
2012,09,16,09,48,16.40
2012,09,16,09,49,16.30
2012,09,16,09,50,16.30
2012,09,16,09,51,16.30
2012,09,16,09,52,16.30
2012,09,16,09,53,16.30
2012,09,16,09,54,16.30
2012,09,16,09,55,16.40
2012,09,16,09,56,16.40
2012,09,16,09,57,16.40
2012,09,16,09,58,16.40
2012,09,16,09,59,16.40
2012,09,16,10,00,16.40
2012,09,16,10,01,16.40
2012,09,16,10,02,16.40
2012,09,16,10,03,16.40
2012,09,16,10,04,16.50
2012,09,16,10,05,16.50
2012,09,16,10,06,16.50
2012,09,16,10,07,16.50
2012,09,16,10,08,16.60
2012,09,16,10,09,16.60
2012,09,16,10,10,16.60
2012,09,16,10,11,16.60
2012,09,16,10,12,16.60
2012,09,16,10,13,16.70
2012,09,16,10,14,16.60
2012,09,16,10,15,16.70
2012,09,16,10,16,16.70
2012,09,16,10,17,16.70
2012,09,16,10,18,16.70
2012,09,16,10,19,16.80
2012,09,16,10,20,16.80
2012,09,16,10,21,16.80
2012,09,16,10,22,16.90
2012,09,16,10,23,16.90
2012,09,16,10,24,16.90
2012,09,16,10,25,16.90
2012,09,16,10,26,17.00
2012,09,16,10,27,17.10
2012,09,16,10,28,17.10
2012,09,16,10,29,17.20
2012,09,16,10,30,17.30
2012,09,16,10,31,17.30
2012,09,16,10,32,17.40
2012,09,16,10,33,17.40
2012,09,16,10,34,17.40
2012,09,16,10,35,17.40
2012,09,16,10,36,17.50
2012,09,16,10,37,17.50
2012,09,16,10,38,17.50
2012,09,16,10,39,17.60
2012,09,16,10,40,17.70
2012,09,16,10,41,17.80
2012,09,16,10,42,17.80
2012,09,16,10,43,17.80
2012,09,16,10,44,17.80
2012,09,16,10,45,17.80
2012,09,16,10,46,17.70
2012,09,16,10,47,17.70
2012,09,16,10,48,17.70
2012,09,16,10,49,17.70
2012,09,16,10,50,17.70
2012,09,16,10,51,17.70
2012,09,16,10,52,17.70
2012,09,16,10,53,17.70
2012,09,16,10,54,17.80
2012,09,16,10,55,17.80
2012,09,16,10,56,17.90
2012,09,16,10,57,17.90
2012,09,16,10,58,17.90
2012,09,16,10,59,17.80
2012,09,16,11,00,17.80
2012,09,16,11,01,17.80
2012,09,16,11,02,17.80
2012,09,16,11,03,17.90
2012,09,16,11,04,17.90
2012,09,16,11,05,17.90
2012,09,16,11,06,17.90
2012,09,16,11,07,18.00
2012,09,16,11,08,18.00
2012,09,16,11,09,18.10
2012,09,16,11,10,18.10
2012,09,16,11,11,18.10
2012,09,16,11,12,18.10
2012,09,16,11,13,18.10
2012,09,16,11,14,18.10
2012,09,16,11,15,18.10
2012,09,16,11,16,18.10
2012,09,16,11,17,18.10
2012,09,16,11,18,18.20
2012,09,16,11,19,18.30
2012,09,16,11,20,18.30
2012,09,16,11,21,18.30
2012,09,16,11,22,18.30
2012,09,16,11,23,18.30
2012,09,16,11,24,18.40
2012,09,16,11,25,18.40
2012,09,16,11,26,18.50
2012,09,16,11,27,18.60
2012,09,16,11,28,18.70
2012,09,16,11,29,18.80
2012,09,16,11,30,18.90
2012,09,16,11,31,18.90
2012,09,16,11,32,18.90
2012,09,16,11,33,19.00
2012,09,16,11,34,19.10
2012,09,16,11,35,19.10
2012,09,16,11,36,19.10
2012,09,16,11,37,19.10
2012,09,16,11,38,19.20
2012,09,16,11,39,19.30
2012,09,16,11,40,19.30
2012,09,16,11,41,19.40
2012,09,16,11,42,19.50
2012,09,16,11,43,19.50
2012,09,16,11,44,19.60
2012,09,16,11,45,19.60
2012,09,16,11,46,19.60
2012,09,16,11,47,19.60
2012,09,16,11,48,19.60
2012,09,16,11,49,19.70
2012,09,16,11,50,19.70
2012,09,16,11,51,19.70
2012,09,16,11,52,19.70
2012,09,16,11,53,19.70
2012,09,16,11,54,19.70
2012,09,16,11,55,19.70
2012,09,16,11,56,19.70
2012,09,16,11,57,19.70
2012,09,16,11,58,19.70
2012,09,16,11,59,19.70
2012,09,16,12,00,19.70
2012,09,16,12,01,19.80
2012,09,16,12,02,19.80
2012,09,16,12,03,19.90
2012,09,16,12,04,19.90
2012,09,16,12,05,20.00
2012,09,16,12,06,20.00
2012,09,16,12,07,20.10
2012,09,16,12,08,20.20
2012,09,16,12,09,20.20
2012,09,16,12,10,20.30
2012,09,16,12,11,20.40
2012,09,16,12,12,20.40
2012,09,16,12,13,20.50
2012,09,16,12,14,20.50
2012,09,16,12,15,20.60
2012,09,16,12,16,20.60
2012,09,16,12,17,20.60
2012,09,16,12,18,20.60
2012,09,16,12,19,20.60
2012,09,16,12,20,20.70
2012,09,16,12,21,20.70
2012,09,16,12,22,20.70
2012,09,16,12,23,20.70
2012,09,16,12,24,20.70
2012,09,16,12,25,20.60
2012,09,16,12,26,20.70
2012,09,16,12,27,20.70
2012,09,16,12,28,20.70
2012,09,16,12,29,20.70
2012,09,16,12,30,20.70
2012,09,16,12,31,20.70
2012,09,16,12,32,20.70
2012,09,16,12,33,20.70
2012,09,16,12,34,20.80
2012,09,16,12,35,20.80
2012,09,16,12,36,20.80
2012,09,16,12,37,20.80
2012,09,16,12,38,20.90
2012,09,16,12,39,20.90
2012,09,16,12,40,20.90
2012,09,16,12,41,20.90
2012,09,16,12,42,20.90
2012,09,16,12,43,21.00
2012,09,16,12,44,21.10
2012,09,16,12,45,21.10
2012,09,16,12,46,21.10
2012,09,16,12,47,21.10
2012,09,16,12,48,21.00
2012,09,16,12,49,21.00
2012,09,16,12,50,21.00
2012,09,16,12,51,20.90
2012,09,16,12,52,20.80
2012,09,16,12,53,20.70
2012,09,16,12,54,20.50
2012,09,16,12,55,20.40
2012,09,16,12,56,20.30
2012,09,16,12,57,20.20
2012,09,16,12,58,20.10
2012,09,16,12,59,20.10
2012,09,16,13,00,20.00
2012,09,16,13,01,20.10
2012,09,16,13,02,20.10
2012,09,16,13,03,20.20
2012,09,16,13,04,20.30
2012,09,16,13,05,20.30
2012,09,16,13,06,20.40
2012,09,16,13,07,20.40
2012,09,16,13,08,20.50
2012,09,16,13,09,20.50
2012,09,16,13,10,20.50
2012,09,16,13,11,20.60
2012,09,16,13,12,20.60
2012,09,16,13,13,20.70
2012,09,16,13,14,20.70
2012,09,16,13,15,20.70
2012,09,16,13,16,20.80
2012,09,16,13,17,20.90
2012,09,16,13,18,21.10
2012,09,16,13,19,21.20
2012,09,16,13,20,21.30
2012,09,16,13,21,21.40
2012,09,16,13,22,21.50
2012,09,16,13,23,21.60
2012,09,16,13,24,21.60
2012,09,16,13,25,21.60
2012,09,16,13,26,21.60
2012,09,16,13,27,21.60
2012,09,16,13,28,21.70
2012,09,16,13,29,21.60
2012,09,16,13,30,21.50
2012,09,16,13,31,21.40
2012,09,16,13,32,21.40
2012,09,16,13,33,21.30
2012,09,16,13,34,21.30
2012,09,16,13,35,21.40
2012,09,16,13,36,21.40
2012,09,16,13,37,21.50
2012,09,16,13,38,21.60
2012,09,16,13,39,21.60
2012,09,16,13,40,21.70
2012,09,16,13,41,21.70
2012,09,16,13,42,21.70
2012,09,16,13,43,21.70
2012,09,16,13,44,21.70
2012,09,16,13,45,21.80
2012,09,16,13,46,21.80
2012,09,16,13,47,21.80
2012,09,16,13,48,21.80
2012,09,16,13,49,21.80
2012,09,16,13,50,21.70
2012,09,16,13,51,21.70
2012,09,16,13,52,21.70
2012,09,16,13,53,21.70
2012,09,16,13,54,21.60
2012,09,16,13,55,21.50
2012,09,16,13,56,21.40
2012,09,16,13,57,21.40
2012,09,16,13,58,21.30
2012,09,16,13,59,21.30
2012,09,16,14,00,21.30
2012,09,16,14,01,21.30
2012,09,16,14,02,21.30
2012,09,16,14,03,21.30
2012,09,16,14,04,21.40
2012,09,16,14,05,21.50
2012,09,16,14,06,21.50
2012,09,16,14,07,21.60
2012,09,16,14,08,21.70
2012,09,16,14,09,21.70
2012,09,16,14,10,21.70
2012,09,16,14,11,21.70
2012,09,16,14,12,21.70
2012,09,16,14,13,21.80
2012,09,16,14,14,21.80
2012,09,16,14,15,21.80
2012,09,16,14,16,21.90
2012,09,16,14,17,21.90
2012,09,16,14,18,21.90
2012,09,16,14,19,21.90
2012,09,16,14,20,21.80
2012,09,16,14,21,21.80
2012,09,16,14,22,21.80
2012,09,16,14,23,21.70
2012,09,16,14,24,21.70
2012,09,16,14,25,21.80
2012,09,16,14,26,21.80
2012,09,16,14,27,21.80
2012,09,16,14,28,21.80
2012,09,16,14,29,21.80
2012,09,16,14,30,21.80
2012,09,16,14,31,21.70
2012,09,16,14,32,21.70
2012,09,16,14,33,21.80
2012,09,16,14,34,21.80
2012,09,16,14,35,21.80
2012,09,16,14,36,21.80
2012,09,16,14,37,21.80
2012,09,16,14,38,21.80
2012,09,16,14,39,21.90
2012,09,16,14,40,21.90
2012,09,16,14,41,21.90
2012,09,16,14,42,22.00
2012,09,16,14,43,22.00
2012,09,16,14,44,22.10
2012,09,16,14,45,22.10
2012,09,16,14,46,22.20
2012,09,16,14,47,22.30
2012,09,16,14,48,22.40
2012,09,16,14,49,22.50
2012,09,16,14,50,22.50
2012,09,16,14,51,22.60
2012,09,16,14,52,22.70
2012,09,16,14,53,22.70
2012,09,16,14,54,22.70
2012,09,16,14,55,22.70
2012,09,16,14,56,22.70
2012,09,16,14,57,22.60
2012,09,16,14,58,22.60
2012,09,16,14,59,22.60
2012,09,16,15,00,22.60
2012,09,16,15,01,22.70
2012,09,16,15,02,22.80
2012,09,16,15,03,22.90
2012,09,16,15,04,23.00
2012,09,16,15,05,23.00
2012,09,16,15,06,22.90
2012,09,16,15,07,22.80
2012,09,16,15,08,22.80
2012,09,16,15,09,22.80
2012,09,16,15,10,22.80
2012,09,16,15,11,22.80
2012,09,16,15,12,22.80
2012,09,16,15,13,22.80
2012,09,16,15,14,22.70
2012,09,16,15,15,22.70
2012,09,16,15,16,22.60
2012,09,16,15,17,22.50
2012,09,16,15,18,22.50
2012,09,16,15,19,22.50
2012,09,16,15,20,22.60
2012,09,16,15,21,22.70
2012,09,16,15,22,22.80
2012,09,16,15,23,22.90
2012,09,16,15,24,22.90
2012,09,16,15,25,22.90
2012,09,16,15,26,23.00
2012,09,16,15,27,23.00
2012,09,16,15,28,23.10
2012,09,16,15,29,23.10
2012,09,16,15,30,23.20
2012,09,16,15,31,23.20
2012,09,16,15,32,23.30
2012,09,16,15,33,23.30
2012,09,16,15,34,23.30
2012,09,16,15,35,23.30
2012,09,16,15,36,23.20
2012,09,16,15,37,23.00
2012,09,16,15,38,23.00
2012,09,16,15,39,22.90
2012,09,16,15,40,22.90
2012,09,16,15,41,22.90
2012,09,16,15,42,22.80
2012,09,16,15,43,22.80
2012,09,16,15,44,22.80
2012,09,16,15,45,22.70
2012,09,16,15,46,22.70
2012,09,16,15,47,22.80
2012,09,16,15,48,22.90
2012,09,16,15,49,22.90
2012,09,16,15,50,22.90
2012,09,16,15,51,22.90
2012,09,16,15,52,22.90
2012,09,16,15,53,22.80
2012,09,16,15,54,22.80
2012,09,16,15,55,22.80
2012,09,16,15,56,22.80
2012,09,16,15,57,22.90
2012,09,16,15,58,22.90
2012,09,16,15,59,22.90
2012,09,16,16,00,22.90
2012,09,16,16,01,22.90
2012,09,16,16,02,22.80
2012,09,16,16,03,22.80
2012,09,16,16,04,22.80
2012,09,16,16,05,22.80
2012,09,16,16,06,22.90
2012,09,16,16,07,22.90
2012,09,16,16,08,22.90
2012,09,16,16,09,22.90
2012,09,16,16,10,22.80
2012,09,16,16,11,22.80
2012,09,16,16,12,22.80
2012,09,16,16,13,22.70
2012,09,16,16,14,22.70
2012,09,16,16,15,22.70
2012,09,16,16,16,22.70
2012,09,16,16,17,22.70
2012,09,16,16,18,22.70
2012,09,16,16,19,22.70
2012,09,16,16,20,22.70
2012,09,16,16,21,22.70
2012,09,16,16,22,22.80
2012,09,16,16,23,22.80
2012,09,16,16,24,22.90
2012,09,16,16,25,23.00
2012,09,16,16,26,23.10
2012,09,16,16,27,23.10
2012,09,16,16,28,23.20
2012,09,16,16,29,23.30
2012,09,16,16,30,23.20
2012,09,16,16,31,23.10
2012,09,16,16,32,23.00
2012,09,16,16,33,22.90
2012,09,16,16,34,22.80
2012,09,16,16,35,22.80
2012,09,16,16,36,22.80
2012,09,16,16,37,22.70
2012,09,16,16,38,22.70
2012,09,16,16,39,22.60
2012,09,16,16,40,22.60
2012,09,16,16,41,22.50
2012,09,16,16,42,22.50
2012,09,16,16,43,22.40
2012,09,16,16,44,22.40
2012,09,16,16,45,22.40
2012,09,16,16,46,22.40
2012,09,16,16,47,22.40
2012,09,16,16,48,22.40
2012,09,16,16,49,22.40
2012,09,16,16,50,22.30
2012,09,16,16,51,22.30
2012,09,16,16,52,22.30
2012,09,16,16,53,22.30
2012,09,16,16,54,22.30
2012,09,16,16,55,22.30
2012,09,16,16,56,22.20
2012,09,16,16,57,22.20
2012,09,16,16,58,22.20
2012,09,16,16,59,22.20
2012,09,16,17,00,22.10
2012,09,16,17,01,22.10
2012,09,16,17,02,22.10
2012,09,16,17,03,22.10
2012,09,16,17,04,22.20
2012,09,16,17,05,22.20
2012,09,16,17,06,22.20
2012,09,16,17,07,22.30
2012,09,16,17,08,22.30
2012,09,16,17,09,22.30
2012,09,16,17,10,22.30
2012,09,16,17,11,22.30
2012,09,16,17,12,22.30
2012,09,16,17,13,22.20
2012,09,16,17,14,22.20
2012,09,16,17,15,22.10
2012,09,16,17,16,22.00
2012,09,16,17,17,22.00
2012,09,16,17,18,21.90
2012,09,16,17,19,21.90
2012,09,16,17,20,21.80
2012,09,16,17,21,21.80